| time (UTC) | temp C | wind direction | speed KPH | gust KPH | rain 1hr cm | rain 24hr cm | rain mn cm | humidity % | barometer mb |
| 20260504014003 | 11 | 232 | 22.5 | 43.5 | 0.00 | 0.00 | 0.00 | 62 | 1009.5 |
| 20260504013714 | 11 | 229 | 20.9 | 41.8 | 0.00 | 0.00 | 0.00 | 62 | 1009.4 |
| 20260504013003 | 11 | 227 | 19.3 | 41.8 | 0.00 | 0.00 | 0.00 | 60 | 1009.5 |
| 20260504012503 | 11 | 228 | 19.3 | 41.8 | 0.00 | 0.00 | 0.00 | 59 | 1009.5 |
| 20260504012213 | 11 | 229 | 17.7 | 38.6 | 0.00 | 0.00 | 0.00 | 58 | 1009.5 |
| 20260504011504 | 12 | 232 | 16.1 | 37.0 | 0.00 | 0.00 | 0.00 | 56 | 1009.6 |
| 20260504011213 | 12 | 233 | 16.1 | 37.0 | 0.00 | 0.00 | 0.00 | 54 | 1009.5 |
| 20260504010503 | 12 | 239 | 12.9 | 30.6 | 0.00 | 0.00 | 0.00 | 53 | 1009.5 |
| 20260504010005 | 12 | 240 | 16.1 | 37.0 | 0.00 | 0.00 | 0.00 | 53 | 1009.4 |
| 20260504005714 | 12 | 241 | 17.7 | 37.0 | 0.00 | 0.00 | 0.00 | 53 | 1009.4 |
| 20260504005003 | 12 | 247 | 22.5 | 37.0 | 0.00 | 0.00 | 0.00 | 53 | 1009.3 |
| 20260504004503 | 12 | 246 | 22.5 | 53.1 | 0.00 | 0.00 | 0.00 | 53 | 1009.3 |
| 20260504004213 | 12 | 243 | 22.5 | 53.1 | 0.00 | 0.00 | 0.00 | 54 | 1009.4 |
| 20260504003504 | 12 | 247 | 17.7 | 35.4 | 0.00 | 0.00 | 0.00 | 54 | 1009.3 |
| 20260504003003 | 11 | 250 | 17.7 | 37.0 | 0.00 | 0.00 | 0.00 | 56 | 1009.4 |
| 20260504002503 | 11 | 245 | 19.3 | 37.0 | 0.00 | 0.00 | 0.00 | 56 | 1009.3 |
| 20260504002003 | 11 | 243 | 20.9 | 38.6 | 0.00 | 0.00 | 0.00 | 56 | 1009.3 |
| 20260504001714 | 11 | 245 | 20.9 | 38.6 | 0.00 | 0.00 | 0.00 | 57 | 1009.3 |
| 20260504001004 | 11 | 249 | 20.9 | 43.5 | 0.00 | 0.00 | 0.00 | 58 | 1009.4 |
| 20260504000714 | 11 | 248 | 22.5 | 43.5 | 0.00 | 0.00 | 0.00 | 58 | 1009.4 |
| 20260504000003 | 11 | 249 | 17.7 | 43.5 | 0.00 | 0.00 | 0.00 | 58 | 1009.5 |
| 20260503235503 | 11 | 251 | 17.7 | 29.0 | 0.00 | 0.00 | 0.00 | 58 | 1009.6 |
| 20260503235003 | 11 | 253 | 19.3 | 35.4 | 0.00 | 0.00 | 0.00 | 58 | 1009.5 |
| 20260503234503 | 11 | 251 | 20.9 | 37.0 | 0.00 | 0.00 | 0.00 | 58 | 1009.6 |
| 20260503234004 | 11 | 248 | 22.5 | 38.6 | 0.00 | 0.00 | 0.00 | 58 | 1009.8 |
| 20260503233503 | 11 | 250 | 20.9 | 38.6 | 0.00 | 0.00 | 0.00 | 58 | 1009.7 |
| 20260503233003 | 11 | 251 | 17.7 | 38.6 | 0.00 | 0.00 | 0.00 | 59 | 1009.8 |
| 20260503232505 | 11 | 254 | 19.3 | 38.6 | 0.00 | 0.00 | 0.00 | 59 | 1009.7 |
| 20260503232003 | 11 | 254 | 20.9 | 37.0 | 0.00 | 0.00 | 0.00 | 60 | 1009.7 |
| 20260503231505 | 11 | 250 | 19.3 | 37.0 | 0.00 | 0.00 | 0.00 | 60 | 1009.8 |
| 20260503231003 | 11 | 252 | 20.9 | 49.9 | 0.00 | 0.00 | 0.00 | 60 | 1009.6 |
| 20260503230503 | 11 | 253 | 22.5 | 49.9 | 0.00 | 0.00 | 0.00 | 62 | 1009.8 |
| 20260503230003 | 11 | 245 | 24.1 | 49.9 | 0.00 | 0.00 | 0.00 | 60 | 1009.8 |
| 20260503225503 | 11 | 249 | 25.7 | 53.1 | 0.00 | 0.00 | 0.00 | 60 | 1009.8 |
| 20260503225003 | 11 | 252 | 24.1 | 53.1 | 0.00 | 0.00 | 0.00 | 60 | 1009.8 |
| 20260503224713 | 11 | 249 | 22.5 | 53.1 | 0.00 | 0.00 | 0.00 | 60 | 1009.8 |
| 20260503224005 | 11 | 243 | 22.5 | 45.1 | 0.00 | 0.00 | 0.00 | 60 | 1009.8 |
| 20260503223503 | 11 | 243 | 19.3 | 43.5 | 0.00 | 0.00 | 0.00 | 60 | 1009.9 |
| 20260503223003 | 11 | 241 | 19.3 | 37.0 | 0.00 | 0.00 | 0.00 | 60 | 1009.9 |
| 20260503222504 | 11 | 245 | 22.5 | 51.5 | 0.00 | 0.00 | 0.00 | 62 | 1010.0 |
| 20260503222005 | 11 | 251 | 24.1 | 51.5 | 0.00 | 0.00 | 0.00 | 63 | 1010.1 |
| 20260503221503 | 11 | 247 | 24.1 | 49.9 | 0.00 | 0.00 | 0.00 | 62 | 1010.1 |
| 20260503221214 | 11 | 245 | 24.1 | 45.1 | 0.00 | 0.00 | 0.00 | 62 | 1010.1 |
| 20260503220713 | 11 | 244 | 24.1 | 66.0 | 0.00 | 0.00 | 0.00 | 62 | 1009.9 |
| 20260503220003 | 11 | 241 | 27.4 | 66.0 | 0.00 | 0.00 | 0.00 | 62 | 1009.8 |
| 20260503215503 | 11 | 237 | 25.7 | 49.9 | 0.00 | 0.00 | 0.00 | 63 | 1009.8 |
| 20260503215005 | 11 | 235 | 22.5 | 49.9 | 0.00 | 0.00 | 0.00 | 63 | 1009.8 |
| 20260503214505 | 11 | 237 | 22.5 | 43.5 | 0.00 | 0.00 | 0.00 | 64 | 1009.8 |
| 20260503214005 | 11 | 238 | 22.5 | 49.9 | 0.00 | 0.00 | 0.00 | 64 | 1009.7 |
| 20260503213503 | 11 | 230 | 20.9 | 49.9 | 0.00 | 0.00 | 0.00 | 65 | 1009.6 |
| 20260503213003 | 11 | 228 | 19.3 | 41.8 | 0.00 | 0.00 | 0.00 | 66 | 1009.5 |
| 20260503212503 | 11 | 229 | 19.3 | 41.8 | 0.00 | 0.00 | 0.00 | 66 | 1009.4 |
| 20260503212214 | 11 | 227 | 19.3 | 45.1 | 0.00 | 0.00 | 0.00 | 66 | 1009.4 |
| 20260503211503 | 10 | 224 | 20.9 | 45.1 | 0.00 | 0.00 | 0.00 | 67 | 1009.4 |
| 20260503211003 | 10 | 228 | 20.9 | 38.6 | 0.00 | 0.00 | 0.00 | 67 | 1009.5 |
| 20260503210713 | 10 | 228 | 19.3 | 45.1 | 0.00 | 0.00 | 0.00 | 68 | 1009.6 |
| 20260503210005 | 10 | 223 | 19.3 | 45.1 | 0.00 | 0.00 | 0.00 | 67 | 1009.7 |
| 20260503205503 | 10 | 223 | 22.5 | 51.5 | 0.00 | 0.00 | 0.00 | 67 | 1009.8 |
| 20260503205003 | 10 | 227 | 22.5 | 51.5 | 0.00 | 0.00 | 0.00 | 66 | 1009.9 |
| 20260503204503 | 10 | 226 | 19.3 | 43.5 | 0.00 | 0.00 | 0.00 | 65 | 1009.9 |
| 20260503204004 | 10 | 223 | 20.9 | 43.5 | 0.00 | 0.00 | 0.00 | 66 | 1009.8 |
| 20260503203503 | 10 | 229 | 19.3 | 45.1 | 0.00 | 0.00 | 0.00 | 65 | 1009.9 |
| 20260503203003 | 10 | 228 | 19.3 | 45.1 | 0.00 | 0.00 | 0.00 | 65 | 1009.9 |
| 20260503202503 | 11 | 226 | 20.9 | 45.1 | 0.00 | 0.00 | 0.00 | 63 | 1010.0 |
| 20260503202214 | 11 | 225 | 19.3 | 45.1 | 0.00 | 0.00 | 0.00 | 64 | 1010.1 |
| 20260503201714 | 11 | 225 | 19.3 | 45.1 | 0.00 | 0.00 | 0.00 | 63 | 1010.1 |
| 20260503201003 | 11 | 223 | 22.5 | 43.5 | 0.00 | 0.00 | 0.00 | 63 | 1010.1 |
| 20260503200505 | 11 | 225 | 24.1 | 43.5 | 0.00 | 0.00 | 0.00 | 63 | 1010.1 |
| 20260503200003 | 11 | 228 | 24.1 | 45.1 | 0.00 | 0.00 | 0.00 | 60 | 1010.2 |
| 20260503195712 | 11 | 230 | 25.7 | 45.1 | 0.00 | 0.00 | 0.00 | 60 | 1010.3 |
| 20260503195213 | 11 | 233 | 22.5 | 46.7 | 0.00 | 0.00 | 0.00 | 58 | 1010.4 |
| 20260503194504 | 11 | 234 | 22.5 | 49.9 | 0.00 | 0.00 | 0.00 | 56 | 1010.3 |
| 20260503194215 | 12 | 230 | 22.5 | 49.9 | 0.00 | 0.00 | 0.00 | 57 | 1010.5 |
| 20260503193503 | 12 | 236 | 27.4 | 64.4 | 0.00 | 0.00 | 0.00 | 56 | 1010.6 |
| 20260503193003 | 11 | 241 | 29.0 | 64.4 | 0.00 | 0.00 | 0.00 | 56 | 1010.5 |
| 20260503192503 | 11 | 238 | 25.7 | 64.4 | 0.00 | 0.00 | 0.00 | 55 | 1010.8 |
| 20260503192003 | 11 | 230 | 27.4 | 51.5 | 0.00 | 0.00 | 0.00 | 56 | 1010.8 |
| 20260503191714 | 11 | 231 | 27.4 | 51.5 | 0.00 | 0.00 | 0.00 | 55 | 1010.8 |
| 20260503191003 | 11 | 243 | 27.4 | 51.5 | 0.00 | 0.00 | 0.00 | 54 | 1011.0 |
| 20260503190503 | 11 | 251 | 27.4 | 51.5 | 0.00 | 0.00 | 0.00 | 55 | 1011.0 |
| 20260503190005 | 11 | 256 | 27.4 | 51.5 | 0.00 | 0.00 | 0.00 | 53 | 1011.1 |
| 20260503185714 | 11 | 251 | 29.0 | 49.9 | 0.00 | 0.00 | 0.00 | 54 | 1011.0 |
| 20260503185213 | 11 | 247 | 25.7 | 49.9 | 0.00 | 0.00 | 0.00 | 54 | 1011.1 |
| 20260503184503 | 11 | 228 | 29.0 | 56.3 | 0.00 | 0.00 | 0.00 | 52 | 1011.1 |
| 20260503184215 | 11 | 232 | 30.6 | 56.3 | 0.00 | 0.00 | 0.00 | 52 | 1011.2 |
| 20260503183503 | 11 | 240 | 30.6 | 64.4 | 0.00 | 0.00 | 0.00 | 50 | 1011.4 |
| 20260503183003 | 11 | 232 | 27.4 | 64.4 | 0.00 | 0.00 | 0.00 | 50 | 1011.4 |
| 20260503182503 | 11 | 230 | 22.5 | 64.4 | 0.00 | 0.00 | 0.00 | 47 | 1011.5 |
| 20260503182003 | 11 | 231 | 22.5 | 51.5 | 0.00 | 0.00 | 0.00 | 47 | 1011.5 |
| 20260503181505 | 11 | 238 | 24.1 | 51.5 | 0.00 | 0.00 | 0.00 | 45 | 1011.5 |
| 20260503181005 | 11 | 241 | 25.7 | 57.9 | 0.00 | 0.00 | 0.00 | 44 | 1011.8 |
| 20260503180505 | 11 | 237 | 25.7 | 57.9 | 0.00 | 0.00 | 0.00 | 46 | 1011.8 |
| 20260503180004 | 11 | 233 | 25.7 | 56.3 | 0.00 | 0.00 | 0.00 | 45 | 1011.9 |
| 20260503175503 | 11 | 230 | 25.7 | 56.3 | 0.00 | 0.00 | 0.00 | 47 | 1011.8 |
| 20260503175003 | 10 | 233 | 24.1 | 56.3 | 0.00 | 0.00 | 0.00 | 48 | 1011.9 |
| 20260503174504 | 10 | 239 | 24.1 | 46.7 | 0.00 | 0.00 | 0.00 | 50 | 1012.1 |
| 20260503174003 | 10 | 233 | 24.1 | 46.7 | 0.00 | 0.00 | 0.00 | 54 | 1012.2 |
| 20260503173503 | 10 | 223 | 22.5 | 51.5 | 0.00 | 0.00 | 0.00 | 56 | 1012.3 |
| 20260503173005 | 10 | 226 | 22.5 | 53.1 | 0.00 | 0.00 | 0.00 | 59 | 1012.5 |
| 20260503172713 | 10 | 231 | 22.5 | 53.1 | 0.00 | 0.00 | 0.00 | 60 | 1012.6 |
| 20260503172004 | 10 | 237 | 20.9 | 38.6 | 0.00 | 0.00 | 0.00 | 62 | 1012.6 |
| 20260503171503 | 10 | 233 | 19.3 | 38.6 | 0.00 | 0.00 | 0.00 | 64 | 1012.4 |
| 20260503171003 | 10 | 231 | 20.9 | 43.5 | 0.00 | 0.00 | 0.00 | 66 | 1012.7 |
| 20260503170505 | 10 | 231 | 20.9 | 49.9 | 0.00 | 0.00 | 0.00 | 67 | 1012.8 |
| 20260503151003 | 10 | 225 | 19.3 | 41.8 | 0.00 | 0.00 | 0.00 | 66 | 1013.5 |
| 20260503150503 | 10 | 225 | 19.3 | 35.4 | 0.00 | 0.00 | 0.00 | 64 | 1013.6 |
| 20260503131003 | 7 | 231 | 16.1 | 41.8 | 0.00 | 0.00 | 0.00 | 80 | 1013.8 |
| 20260503130714 | 7 | 233 | 16.1 | 41.8 | 0.00 | 0.00 | 0.00 | 80 | 1013.9 |
| 20260503120214 | 4 | 216 | 6.4 | 22.5 | 0.00 | 0.00 | 0.00 | 92 | 1014.0 |
| 20260503110503 | 1 | 161 | 6.4 | 14.5 | 0.00 | 0.00 | 0.00 | 91 | 1014.1 |
| 20260503110214 | 1 | 159 | 4.8 | 14.5 | 0.00 | 0.00 | 0.00 | 91 | 1014.0 |
| 20260503090503 | 0 | 200 | 1.6 | 4.8 | 0.00 | 0.00 | 0.00 | 91 | 1014.2 |
| 20260503081504 | 0 | 199 | 1.6 | 6.4 | 0.00 | 0.00 | 0.00 | 91 | 1014.3 |
| 20260503081003 | 0 | 199 | 3.2 | 6.4 | 0.00 | 0.00 | 0.00 | 91 | 1014.3 |
| 20260503080714 | 0 | 199 | 3.2 | 6.4 | 0.00 | 0.00 | 0.00 | 91 | 1014.3 |
| 20260503072503 | 0 | 0 | 0.0 | 0.0 | 0.00 | 0.00 | 0.00 | 90 | 1014.2 |
| 20260503072213 | 0 | 0 | 0.0 | 0.0 | 0.00 | 0.00 | 0.00 | 90 | 1014.2 |
| 20260503071503 | 0 | 0 | 0.0 | 0.0 | 0.00 | 0.00 | 0.00 | 90 | 1014.2 |
| 20260503071003 | 0 | 0 | 0.0 | 0.0 | 0.00 | 0.00 | 0.00 | 90 | 1014.2 |
| 20260503070503 | 0 | 0 | 0.0 | 0.0 | 0.00 | 0.00 | 0.00 | 90 | 1014.2 |
| 20260503055005 | 1 | 0 | 0.0 | 0.0 | 0.00 | 0.00 | 0.00 | 84 | 1014.4 |
| 20260503054503 | 1 | 0 | 0.0 | 0.0 | 0.00 | 0.00 | 0.00 | 84 | 1014.4 |
| 20260503054003 | 2 | 0 | 0.0 | 0.0 | 0.00 | 0.00 | 0.00 | 84 | 1014.4 |
| 20260503053503 | 2 | 0 | 0.0 | 0.0 | 0.00 | 0.00 | 0.00 | 84 | 1014.5 |
| 20260503053003 | 2 | 0 | 0.0 | 0.0 | 0.00 | 0.00 | 0.00 | 83 | 1014.5 |
| 20260503052503 | 2 | 199 | 0.0 | 4.8 | 0.00 | 0.00 | 0.00 | 83 | 1014.5 |
| 20260503052005 | 2 | 199 | 1.6 | 4.8 | 0.00 | 0.00 | 0.00 | 82 | 1014.6 |
| 20260503051503 | 2 | 199 | 3.2 | 6.4 | 0.00 | 0.00 | 0.00 | 82 | 1014.7 |
| 20260503051003 | 2 | 199 | 3.2 | 6.4 | 0.00 | 0.00 | 0.00 | 82 | 1014.8 |
| 20260503050504 | 2 | 199 | 1.6 | 4.8 | 0.00 | 0.00 | 0.00 | 82 | 1014.7 |
| 20260503050003 | 3 | 199 | 3.2 | 6.4 | 0.00 | 0.00 | 0.00 | 81 | 1014.7 |
| 20260503045503 | 3 | 199 | 3.2 | 6.4 | 0.00 | 0.00 | 0.00 | 80 | 1014.8 |
| 20260503045003 | 3 | 199 | 3.2 | 4.8 | 0.00 | 0.00 | 0.00 | 80 | 1014.8 |
| 20260503044503 | 3 | 199 | 1.6 | 4.8 | 0.00 | 0.00 | 0.00 | 80 | 1014.8 |
| 20260503044003 | 3 | 199 | 1.6 | 4.8 | 0.00 | 0.00 | 0.00 | 79 | 1014.8 |
| 20260503043503 | 3 | 199 | 3.2 | 6.4 | 0.00 | 0.00 | 0.00 | 79 | 1014.9 |
| 20260503043003 | 3 | 199 | 3.2 | 8.0 | 0.00 | 0.00 | 0.00 | 78 | 1014.8 |
| 20260503042503 | 3 | 199 | 3.2 | 8.0 | 0.00 | 0.00 | 0.00 | 78 | 1014.9 |
| 20260503042004 | 3 | 199 | 3.2 | 8.0 | 0.00 | 0.00 | 0.00 | 78 | 1014.9 |
| 20260503041503 | 4 | 199 | 3.2 | 8.0 | 0.00 | 0.00 | 0.00 | 78 | 1015.0 |
| 20260503041004 | 4 | 199 | 3.2 | 9.7 | 0.00 | 0.00 | 0.00 | 77 | 1015.0 |
| 20260503040504 | 4 | 205 | 3.2 | 9.7 | 0.00 | 0.00 | 0.00 | 77 | 1015.0 |
| 20260503040215 | 4 | 210 | 3.2 | 9.7 | 0.00 | 0.00 | 0.00 | 77 | 1015.0 |
| 20260503035503 | 4 | 217 | 3.2 | 8.0 | 0.00 | 0.00 | 0.00 | 76 | 1015.0 |
| 20260503035213 | 4 | 217 | 3.2 | 6.4 | 0.00 | 0.00 | 0.00 | 76 | 1015.0 |
| 20260503034714 | 4 | 217 | 3.2 | 8.0 | 0.00 | 0.00 | 0.00 | 76 | 1015.0 |
| 20260503034003 | 4 | 217 | 3.2 | 8.0 | 0.00 | 0.00 | 0.00 | 76 | 1015.0 |
| 20260503033503 | 4 | 217 | 3.2 | 6.4 | 0.00 | 0.00 | 0.00 | 76 | 1015.0 |
| 20260503033003 | 4 | 217 | 3.2 | 6.4 | 0.00 | 0.00 | 0.00 | 76 | 1015.0 |
| 20260503032503 | 4 | 217 | 3.2 | 8.0 | 0.00 | 0.00 | 0.00 | 76 | 1015.0 |
| 20260503032003 | 4 | 217 | 3.2 | 8.0 | 0.00 | 0.00 | 0.00 | 76 | 1015.0 |
| 20260503031503 | 5 | 217 | 3.2 | 9.7 | 0.00 | 0.00 | 0.00 | 76 | 1015.0 |
| 20260503031003 | 5 | 217 | 3.2 | 9.7 | 0.00 | 0.00 | 0.00 | 76 | 1015.0 |
| 20260503030503 | 5 | 217 | 1.6 | 6.4 | 0.00 | 0.00 | 0.00 | 76 | 1015.1 |
| 20260503030213 | 5 | 217 | 3.2 | 6.4 | 0.00 | 0.00 | 0.00 | 75 | 1015.0 |
| 20260503025503 | 5 | 217 | 3.2 | 6.4 | 0.00 | 0.00 | 0.00 | 75 | 1015.1 |
| 20260503025003 | 5 | 217 | 3.2 | 6.4 | 0.00 | 0.00 | 0.00 | 75 | 1015.1 |
| 20260503024714 | 5 | 217 | 3.2 | 8.0 | 0.00 | 0.00 | 0.00 | 74 | 1015.2 |
| 20260503024215 | 5 | 217 | 3.2 | 8.0 | 0.00 | 0.00 | 0.00 | 74 | 1015.2 |
| 20260503023714 | 5 | 217 | 3.2 | 8.0 | 0.00 | 0.00 | 0.00 | 74 | 1015.1 |
| 20260503023003 | 5 | 217 | 3.2 | 8.0 | 0.00 | 0.00 | 0.00 | 72 | 1015.2 |
| 20260503022503 | 5 | 217 | 4.8 | 12.9 | 0.00 | 0.00 | 0.00 | 72 | 1015.3 |
| 20260503022005 | 5 | 216 | 4.8 | 12.9 | 0.00 | 0.00 | 0.00 | 72 | 1015.4 |
| 20260503021505 | 5 | 215 | 4.8 | 12.9 | 0.00 | 0.00 | 0.00 | 72 | 1015.4 |
| 20260503021004 | 5 | 218 | 6.4 | 16.1 | 0.00 | 0.00 | 0.00 | 71 | 1015.5 |
| 20260503020505 | 5 | 226 | 6.4 | 16.1 | 0.00 | 0.00 | 0.00 | 71 | 1015.4 |
| 20260503020003 | 5 | 252 | 6.4 | 14.5 | 0.00 | 0.00 | 0.00 | 72 | 1015.4 |
| 20260503015504 | 5 | 273 | 6.4 | 14.5 | 0.00 | 0.00 | 0.00 | 75 | 1015.5 |
| 20260503015003 | 5 | 281 | 6.4 | 14.5 | 0.00 | 0.00 | 0.00 | 74 | 1015.5 |
| 20260503014503 | 5 | 281 | 6.4 | 14.5 | 0.00 | 0.00 | 0.00 | 74 | 1015.5 |